TimeEDT,TemperatureF,Dew PointF,Humidity,Sea Level PressureIn,VisibilityMPH,Wind Direction,Wind SpeedMPH,Gust SpeedMPH,PrecipitationIn,Events,Conditions,WindDirDegrees,DateUTC
12:53 AM,44.1,34.0,68,29.87,10.0,Calm,Calm,-,N/A,,Overcast,0,2012-11-01 04:53:00
1:53 AM,44.1,33.1,65,29.87,10.0,WSW,5.8,-,N/A,,Overcast,250,2012-11-01 05:53:00
2:53 AM,44.1,32.0,63,29.86,10.0,WSW,4.6,-,N/A,,Overcast,240,2012-11-01 06:53:00
4:53 AM,39.9,30.9,70,29.86,10.0,WSW,5.8,-,N/A,,Clear,250,2012-11-01 08:53:00
5:53 AM,37.9,28.9,70,29.88,10.0,West,3.5,-,N/A,,Clear,260,2012-11-01 09:53:00
7:53 AM,34.0,26.1,73,29.90,10.0,WSW,4.6,-,N/A,,Clear,250,2012-11-01 11:53:00
9:53 AM,39.0,27.0,62,29.93,10.0,WSW,6.9,-,N/A,,Clear,250,2012-11-01 13:53:00
10:53 AM,43.0,27.0,53,29.94,10.0,West,8.1,-,N/A,,Mostly Cloudy,280,2012-11-01 14:53:00
11:53 AM,46.9,23.0,39,29.94,10.0,West,10.4,-,N/A,,Mostly Cloudy,280,2012-11-01 15:53:00
12:53 PM,48.9,24.1,38,29.92,10.0,WSW,8.1,-,N/A,,Mostly Cloudy,240,2012-11-01 16:53:00
1:53 PM,50.0,21.0,32,29.91,10.0,West,11.5,20.7,N/A,,Clear,280,2012-11-01 17:53:00
2:53 PM,52.0,21.0,30,29.89,10.0,West,10.4,17.3,N/A,,Scattered Clouds,270,2012-11-01 18:53:00
3:53 PM,53.1,19.0,26,29.88,10.0,WNW,11.5,17.3,N/A,,Partly Cloudy,290,2012-11-01 19:53:00
4:53 PM,54.0,19.0,25,29.88,10.0,West,8.1,-,N/A,,Overcast,270,2012-11-01 20:53:00
5:53 PM,51.1,19.9,29,29.88,10.0,WSW,6.9,-,N/A,,Scattered Clouds,250,2012-11-01 21:53:00
6:53 PM,48.9,21.9,35,29.88,10.0,WSW,3.5,-,N/A,,Overcast,250,2012-11-01 22:53:00
7:53 PM,48.9,23.0,36,29.89,10.0,WSW,5.8,-,N/A,,Overcast,240,2012-11-01 23:53:00
8:53 PM,48.0,25.0,41,29.89,10.0,WSW,4.6,-,N/A,,Overcast,240,2012-11-02 00:53:00
9:53 PM,48.9,23.0,36,29.89,10.0,West,4.6,-,N/A,,Overcast,260,2012-11-02 01:53:00
10:53 PM,48.9,25.0,39,29.90,10.0,WSW,5.8,-,N/A,,Overcast,240,2012-11-02 02:53:00
11:53 PM,48.9,26.1,41,29.88,10.0,West,3.5,-,N/A,,Overcast,260,2012-11-02 03:53:00